[[{"header":{"parameterUnit":"m.s-1","parameterCategory":1,"la1":30.2991,"la2":30.254,"lo1":-89.0895,"lo2":-89.0444,"dy":0.0017,"dx":0.0017,"nx":28,"ny":28,"refTime":"2024-05-29T21:00:00:Z","depth":0,"parameterNumber":2,"parameterNumberName":"U-component_of_WINDS"},"data":[0,0,0,0,0,0,0,0,0,0,0,0,0,0,0,0,0,0,0,0,0,0,0,0,0,0,0,0,0,0,0,0,0,0,0,0,0,0,0,0,0,0,0,0,0,0,0,0,0,0,0,0,0,0,0,0,0,0,-4.6163,-4.6163,0,-4.6211,-4.6211,-4.6212,-4.616,-4.6158,-4.6156,-4.6154,-4.6207,-4.6211,-4.6214,0,0,0,0,0,0,0,0,0,0,0,0,0,-4.6031,-4.6034,-4.6163,-4.6163,-4.6164,-4.6211,-4.6211,-4.6212,-4.616,-4.6158,-4.6155,-4.6153,-4.6206,-4.621,-4.6214,0,0,0,0,0,0,0,0,0,0,0,0,0,-4.6085,-4.6035,-4.6163,-4.6144,-4.6142,-4.6211,-4.6211,-4.6212,-4.6161,-4.6158,-4.6155,-4.6152,-4.6205,-4.621,-4.6215,-4.6305,0,0,-4.623,-4.6232,0,0,0,0,0,0,0,0,-4.6082,-4.609,-4.6146,-4.6145,-4.6144,-4.6176,-4.6184,-4.6244,-4.6161,-4.6154,-4.6154,-4.615,-4.62,-4.6205,-4.6221,-4.6308,-4.631,-4.623,-4.6233,-4.6235,-4.6237,0,0,0,0,0,0,0,-4.6078,-4.6087,-4.6182,-4.6147,-4.6145,-4.6134,-4.6139,-4.6195,-4.6193,-4.6154,-4.6151,-4.6157,-4.6199,-4.6216,-4.6221,-4.6311,-4.623,-4.6234,-4.6237,-4.6239,-4.6476,-4.648,0,0,0,0,0,0,-4.6076,-4.6085,-4.618,-4.6183,-4.6105,-4.6139,-4.6144,-4.6169,-4.6192,-4.6193,-4.6159,-4.6154,-4.6209,-4.6216,-4.6223,-4.6331,-4.6235,-4.624,-4.6243,-4.6473,-4.6477,-4.6481,0,0,0,0,0,0,-4.6073,-4.6085,-4.6178,-4.6133,-4.6144,-4.6145,-4.6173,-4.6171,-4.6188,-4.6196,-4.6196,-4.6177,-4.6207,-4.6216,-4.6285,-4.6332,-4.6242,-4.6247,-4.6469,-4.6474,-4.6479,-4.6547,0,0,0,0,0,0,-4.607,-4.6084,-4.6117,-4.6134,-4.6147,-4.6238,-4.6176,-4.6174,-4.6197,-4.619,-4.6213,-4.6214,-4.6205,-4.6278,-4.629,-4.6337,-4.625,-4.6465,-4.6472,-4.6477,-4.6541,-4.6554,-4.6565,0,0,0,0,0,-4.6065,-4.6135,-4.6119,-4.6131,-4.6188,-4.6241,-4.6248,-4.6236,-4.6201,-4.6235,-4.624,-4.6213,-4.6326,-4.6286,-4.6299,-4.6348,-4.6462,-4.647,-4.6477,-4.6535,-4.6551,-4.6565,0,0,0,0,0,0,-4.6125,-4.6137,-4.6119,-4.6196,-4.6218,-4.6232,-4.6274,-4.6253,-4.6286,-4.6279,-4.6264,-4.6269,-4.6343,-4.6353,-4.6308,-4.6438,-4.6388,-4.6399,-4.6428,-4.6443,-4.6455,-4.6451,-4.6255,0,0,0,0,0,-4.6147,-4.6187,-4.6197,-4.6264,-4.6276,-4.6273,-4.6296,-4.6285,-4.6307,-4.6316,-4.6326,-4.635,-4.6391,-4.6418,-4.6456,-4.6543,-4.6547,-4.6583,-4.6596,-4.6606,-4.6614,-4.6662,-4.6678,-4.6505,-4.6505,-4.6505,0,0,-4.6193,-4.6205,-4.6231,-4.6276,-4.6291,-4.6335,-4.6281,-4.633,-4.6363,-4.6324,-4.6389,-4.6398,-4.6424,-4.6502,-4.6537,-4.6513,-4.6663,-4.6615,-4.6623,-4.6626,-4.6671,-4.6687,-4.6702,-4.6511,-4.651,-4.6509,0,0,-4.6299,-4.6312,-4.6369,-4.6386,-4.6409,-4.6408,-4.6422,-4.644,-4.6443,-4.6509,-4.6481,-4.6521,-4.6591,-4.6611,-4.663,-4.6746,-4.6723,-4.676,-4.6823,-4.6869,-4.6883,-4.6895,-4.6936,-4.6951,-4.6769,-4.6769,-4.6769,0,-4.6353,-4.6416,-4.6402,-4.6452,-4.6473,-4.644,-4.6499,-4.6517,-4.6552,-4.6569,-4.6541,-4.6629,-4.6644,-4.6727,-4.6755,-4.6772,-4.6789,-4.6756,-4.6882,-4.6893,-4.6904,-4.6943,-4.6959,-4.6773,-4.6773,-4.6772,-4.6772,0,-4.6482,-4.6527,-4.6571,-4.6604,-4.6631,-4.6686,-4.6681,-4.671,-4.6698,-4.67,-4.6768,-4.6786,-4.6827,-4.6846,-4.6835,-4.6928,-4.6912,-4.6883,-4.6833,-4.6925,-4.6962,-4.6977,-4.6779,-4.6778,-4.6776,-4.6775,0,0,-4.6624,-4.665,-4.6666,-4.6682,-4.6706,-4.6742,-4.6797,-4.6835,-4.6861,-4.6888,-4.6933,-4.6995,-4.6969,-4.6991,-4.6982,-4.7023,-4.7114,-4.699,-4.699,-4.7011,-4.7218,-4.7238,-4.7256,-4.71,-4.7103,-4.7105,-4.7216,0,-4.6729,-4.6821,-4.6811,-4.6899,-4.6941,-4.6912,-4.696,-4.6981,-4.6986,-4.7023,-4.7029,-4.7072,-4.7035,-4.7048,-4.7087,-4.7095,-4.7155,-4.7087,-4.7143,-4.7145,-4.7135,-4.7275,-4.7296,-4.74,-4.723,-4.7232,-4.7234,0,-4.6864,-4.6894,-4.6986,-4.7006,-4.7023,-4.7066,-4.7101,-4.7137,-4.7162,-4.7163,-4.7189,-4.7173,-4.723,-4.718,-4.7259,-4.7213,-4.7236,-4.7243,-4.7247,-4.725,-4.7194,-4.7281,-4.7432,-4.7447,-4.7257,-4.7255,-4.7253,0,-4.6957,-4.7021,-4.7085,-4.7099,-4.7124,-4.7154,-4.7167,-4.7188,-4.7213,-4.7246,-4.7262,-4.7301,-4.7322,-4.7354,-4.7351,-4.7315,-4.7431,-4.7381,-4.7433,-4.7434,-4.7457,-4.7455,-4.7613,-4.7475,-4.7475,-4.7475,-4.7474,0,-4.7075,-4.7132,-4.7127,-4.7166,-4.723,-4.722,-4.7284,-4.7293,-4.7313,-4.7355,-4.7333,-4.7373,-4.7367,-4.7407,-4.7406,-4.7471,-4.7481,-4.7484,-4.7483,-4.7485,-4.7484,-4.7498,-4.749,-4.7479,-4.7478,-4.7477,-4.7476,0,-4.7189,-4.7187,-4.7255,-4.7273,-4.7279,-4.7325,-4.7341,-4.7379,-4.7383,-4.7436,-4.7448,-4.7454,-4.7501,-4.7501,-4.7555,-4.7554,-4.7634,-4.7625,-4.7625,-4.7622,-4.7675,-4.7669,-4.7845,-4.7868,-4.7717,-4.7718,-4.7719,0,-4.7263,-4.7306,-4.7329,-4.7354,-4.7368,-4.741,-4.7435,-4.7427,-4.7455,-4.7487,-4.7522,-4.7566,-4.7601,-4.7678,-4.7688,-4.773,-4.7721,-4.778,-4.7727,-4.7729,-4.7721,-4.7718,-4.7722,-4.779,-4.7792,-4.7793,-4.7794,0,-4.7395,-4.7392,-4.7428,-4.7465,-4.7495,-4.7523,-4.755,-4.7573,-4.7569,-4.7601,-4.7648,-4.7675,-4.773,-4.7775,-4.7816,-4.783,-4.7812,-4.7811,-4.7825,-4.7827,-4.7825,-4.7826,-4.7651,-4.7807,-4.7805,-4.7804,-4.7804,-4.7803,-4.749,-4.7527,-4.7549,-4.7591,-4.761,-4.7635,-4.7672,-4.768,-4.7718,-4.7761,-4.7756,-4.7808,-4.7835,-4.7887,-4.7905,-4.7948,-4.7927,-4.7948,-4.7953,-4.7958,-4.7963,-4.782,-4.7955,-4.7955,-4.7955,-4.7954,-4.7954,0,-4.762,-4.7633,-4.7671,-4.7708,-4.7741,-4.7721,-4.775,-4.7779,-4.7825,-4.785,-4.7885,-4.794,-4.7985,-4.7999,-4.8042,-4.8073,-4.8066,-4.8085,-4.8082,-4.8085,-4.7979,-4.7962,-4.809,-4.809,-4.809,-4.809,-4.809,-4.809,-4.7691,-4.7753,-4.7754,-4.7826,-4.7839,-4.7889,-4.7907,-4.7932,-4.7952,-4.8013,-4.8049,-4.8058,-4.808,-4.8125,-4.8165,-4.8168,-4.8185,-4.8207,-4.8207,-4.8107,-4.8093,-4.808,-4.8063,-4.8211,-4.8211,-4.8309,-4.831,-4.8311]},{"header":{"parameterUnit":"m.s-1","parameterCategory":1,"la1":30.2991,"la2":30.254,"lo1":-89.0895,"lo2":-89.0444,"dy":0.0017,"dx":0.0017,"nx":28,"ny":28,"refTime":"2024-05-29T21:00:00:Z","depth":0,"parameterNumber":3,"parameterNumberName":"V-component_of_WINDS"},"data":[0,0,0,0,0,0,0,0,0,0,0,0,0,0,0,0,0,0,0,0,0,0,0,0,0,0,0,0,0,0,0,0,0,0,0,0,0,0,0,0,0,0,0,0,0,0,0,0,0,0,0,0,0,0,0,0,0,0,3.0222,3.0222,0,3.0242,3.0242,3.0242,3.0282,3.0283,3.0284,3.0284,3.0302,3.0302,3.0301,0,0,0,0,0,0,0,0,0,0,0,0,0,3.0216,3.0216,3.0222,3.0222,3.0223,3.0242,3.0242,3.0242,3.0282,3.0283,3.0284,3.0285,3.0302,3.0302,3.0301,0,0,0,0,0,0,0,0,0,0,0,0,0,3.0226,3.0216,3.0222,3.0245,3.0247,3.0242,3.0242,3.0242,3.0282,3.0283,3.0284,3.0285,3.0302,3.0302,3.0301,3.0275,0,0,3.03,3.03,0,0,0,0,0,0,0,0,3.0225,3.0226,3.0241,3.0243,3.0246,3.0261,3.0247,3.0253,3.0281,3.0268,3.0284,3.0286,3.0287,3.0288,3.0289,3.0276,3.0276,3.03,3.03,3.03,3.03,0,0,0,0,0,0,0,3.0224,3.0225,3.023,3.0241,3.0244,3.0253,3.0256,3.0248,3.0271,3.027,3.0273,3.0275,3.0289,3.0289,3.029,3.0277,3.03,3.03,3.0299,3.0299,3.0242,3.0241,0,0,0,0,0,0,3.0221,3.0224,3.0229,3.023,3.0238,3.0252,3.0255,3.0255,3.0271,3.0275,3.0274,3.0276,3.0289,3.029,3.029,3.026,3.03,3.0299,3.0299,3.0244,3.0242,3.0241,0,0,0,0,0,0,3.022,3.0221,3.0228,3.0228,3.023,3.0251,3.025,3.0254,3.0255,3.0274,3.0278,3.027,3.029,3.0291,3.0279,3.0261,3.0299,3.0299,3.0245,3.0243,3.0241,3.0199,0,0,0,0,0,0,3.022,3.022,3.0211,3.0228,3.023,3.0217,3.0249,3.0254,3.0255,3.0259,3.0272,3.0275,3.0291,3.0279,3.0278,3.0261,3.0298,3.0247,3.0244,3.0242,3.0202,3.0196,3.0191,0,0,0,0,0,3.022,3.0198,3.021,3.0211,3.0219,3.0216,3.0217,3.0236,3.0253,3.0243,3.0256,3.0275,3.0264,3.0277,3.0277,3.026,3.0248,3.0245,3.0242,3.0205,3.0197,3.0191,0,0,0,0,0,0,3.0177,3.02,3.0214,3.0197,3.0204,3.0222,3.0211,3.0228,3.023,3.0233,3.0257,3.026,3.0244,3.0251,3.0266,3.0235,3.0259,3.0256,3.023,3.0224,3.0218,3.0216,3.0298,0,0,0,0,0,3.0166,3.0163,3.0183,3.0166,3.0169,3.0189,3.0188,3.0203,3.0211,3.0214,3.0225,3.0231,3.0229,3.0227,3.0226,3.0204,3.0207,3.0192,3.0186,3.0181,3.0178,3.0166,3.0159,3.0231,3.0231,3.0231,0,0,3.0143,3.0155,3.0151,3.0157,3.0165,3.0159,3.0191,3.0184,3.0181,3.0213,3.0201,3.021,3.0218,3.0201,3.0193,3.0206,3.0159,3.0178,3.0174,3.0173,3.0162,3.0156,3.015,3.0229,3.023,3.023,0,0,3.0097,3.0106,3.0093,3.01,3.0111,3.0125,3.0121,3.0137,3.0144,3.0134,3.0157,3.0153,3.0149,3.0154,3.0156,3.0113,3.013,3.0112,3.0082,3.007,3.0064,3.0059,3.0043,3.0037,3.0109,3.0109,3.0109,0,3.0066,3.006,3.0084,3.0076,3.0078,3.0108,3.0094,3.0099,3.0108,3.0109,3.0123,3.0119,3.0126,3.011,3.01,3.0101,3.0097,3.011,3.0063,3.0059,3.0054,3.0039,3.0033,3.0106,3.0107,3.0107,3.0107,0,3.0021,3.0017,3.0005,3.0014,3.0015,3.0004,3.0025,3.0023,3.0038,3.005,3.0039,3.0049,3.0051,3.0048,3.0063,3.0034,3.0041,3.0059,3.0084,3.0045,3.0031,3.0025,3.0103,3.0104,3.0104,3.0105,0,0,2.9948,2.9972,2.9967,2.9971,2.9986,2.9982,2.9973,2.9975,2.9972,2.9978,2.997,2.9966,2.9983,2.9985,3.0,2.999,2.9954,3.0009,3.001,2.9998,2.9923,2.9908,2.9901,2.9967,2.9966,2.9965,2.9921,0,2.9905,2.989,2.9911,2.9892,2.9887,2.9916,2.9908,2.9915,2.9927,2.9924,2.9937,2.9933,2.9956,2.9957,2.9949,2.9961,2.9939,2.9964,2.9958,2.9958,2.9954,2.9894,2.9879,2.9837,2.9916,2.9915,2.9915,0,2.9852,2.9856,2.9836,2.9852,2.9851,2.9843,2.9847,2.9845,2.9854,2.9863,2.9866,2.9884,2.9875,2.99,2.9887,2.9903,2.9902,2.9908,2.9907,2.9906,2.9933,2.989,2.9824,2.9818,2.9907,2.9907,2.9908,0,2.9799,2.98,2.9788,2.9791,2.981,2.9804,2.9811,2.9821,2.9821,2.9825,2.9825,2.9827,2.9828,2.9828,2.9847,2.9863,2.9831,2.9858,2.9837,2.9837,2.9828,2.9828,2.976,2.9829,2.983,2.983,2.983,0,2.9748,2.9734,2.9765,2.9757,2.9743,2.9767,2.9752,2.9762,2.9771,2.9765,2.9791,2.9785,2.981,2.9806,2.9821,2.9807,2.9808,2.9814,2.9818,2.9811,2.981,2.9809,2.9812,2.9828,2.9828,2.9829,2.9829,0,2.9686,2.9706,2.9695,2.9714,2.9718,2.9707,2.9722,2.9716,2.9729,2.9722,2.9721,2.9742,2.9739,2.9758,2.9759,2.9768,2.9747,2.9757,2.9744,2.9747,2.9725,2.9726,2.9653,2.9644,2.972,2.9719,2.9719,0,2.9652,2.9642,2.966,2.9659,2.9665,2.9662,2.9663,2.9687,2.9686,2.9696,2.9688,2.9687,2.9688,2.9682,2.9696,2.9697,2.9706,2.968,2.9706,2.9699,2.9704,2.9704,2.9702,2.9674,2.9673,2.9672,2.9672,0,2.9588,2.9598,2.9599,2.9603,2.9603,2.9607,2.9612,2.9609,2.9635,2.9633,2.9631,2.9632,2.9633,2.9632,2.9635,2.9642,2.966,2.9664,2.9659,2.9651,2.9644,2.9647,2.9728,2.9665,2.9666,2.9666,2.9666,2.9667,2.9538,2.9531,2.9542,2.9542,2.9549,2.9553,2.9548,2.9561,2.956,2.9563,2.9578,2.9573,2.9582,2.9589,2.9593,2.9589,2.9602,2.9595,2.9593,2.959,2.9586,2.9646,2.959,2.9591,2.9591,2.9591,2.9591,0,2.9474,2.9484,2.9483,2.949,2.949,2.9509,2.9516,2.9514,2.951,2.9518,2.9518,2.9516,2.9515,2.9529,2.953,2.9524,2.9533,2.9523,2.9523,2.9524,2.9576,2.9579,2.9516,2.9516,2.9516,2.9516,2.9516,2.9516,2.9441,2.943,2.9442,2.9433,2.9443,2.9439,2.9441,2.9445,2.9452,2.9448,2.9447,2.9458,2.9468,2.9469,2.9469,2.9474,2.9472,2.9459,2.9466,2.9514,2.9521,2.9528,2.9531,2.9459,2.9459,2.9416,2.9415,2.9415]}]]